| time (UTC) | temp C | wind direction | speed KPH | gust KPH | rain 1hr cm | rain 24hr cm | rain mn cm | humidity % | barometer mb |
| 20260506051008 | 24 | 163 | 3.2 | 14.5 | 0.00 | 0.00 | 0.00 | 91 | 1009.3 |
| 20260506050510 | 24 | 170 | 4.8 | 14.5 | 0.00 | 0.00 | 0.00 | 91 | 1009.3 |
| 20260506045010 | 24 | 238 | 3.2 | 14.5 | 0.00 | 0.00 | 0.00 | 91 | 1009.3 |
| 20260506044537 | 24 | 192 | 3.2 | 14.5 | 0.00 | 0.00 | 0.00 | 91 | 1009.3 |
| 20260506044008 | 24 | 159 | 4.8 | 14.5 | 0.00 | 0.00 | 0.00 | 91 | 1009.3 |
| 20260506043513 | 24 | 173 | 3.2 | 14.5 | 0.00 | 0.00 | 0.00 | 91 | 1009.4 |
| 20260506043014 | 25 | 169 | 3.2 | 14.5 | 0.00 | 0.00 | 0.00 | 90 | 1009.3 |
| 20260506042512 | 25 | 164 | 3.2 | 12.9 | 0.00 | 0.00 | 0.00 | 90 | 1009.3 |
| 20260506042011 | 25 | 188 | 4.8 | 11.3 | 0.00 | 0.00 | 0.00 | 90 | 1009.2 |
| 20260506041522 | 25 | 171 | 1.6 | 12.9 | 0.00 | 0.00 | 0.00 | 90 | 1009.2 |
| 20260506041013 | 25 | 211 | 6.4 | 14.5 | 0.00 | 0.00 | 0.00 | 90 | 1009.1 |
| 20260506040514 | 25 | 207 | 6.4 | 14.5 | 0.00 | 0.00 | 0.00 | 89 | 1009.1 |
| 20260506040028 | 25 | 143 | 8.0 | 17.7 | 0.00 | 0.00 | 0.00 | 89 | 1009.1 |
| 20260506035510 | 25 | 168 | 8.0 | 17.7 | 0.00 | 0.00 | 0.00 | 89 | 1009.2 |
| 20260506035007 | 25 | 182 | 4.8 | 12.9 | 0.00 | 0.00 | 0.00 | 89 | 1009.2 |
| 20260506034520 | 25 | 148 | 3.2 | 17.7 | 0.00 | 0.00 | 0.00 | 89 | 1009.1 |
| 20260506034007 | 25 | 173 | 4.8 | 17.7 | 0.00 | 0.00 | 0.00 | 89 | 1008.9 |
| 20260506033514 | 25 | 153 | 6.4 | 17.7 | 0.00 | 0.00 | 0.00 | 89 | 1008.8 |
| 20260506033027 | 25 | 202 | 6.4 | 17.7 | 0.00 | 0.00 | 0.00 | 89 | 1008.7 |
| 20260506032510 | 25 | 218 | 3.2 | 17.7 | 0.00 | 0.00 | 0.00 | 89 | 1008.6 |
| 20260506032012 | 25 | 161 | 4.8 | 17.7 | 0.00 | 0.00 | 0.00 | 89 | 1008.5 |
| 20260506031518 | 25 | 187 | 8.0 | 19.3 | 0.00 | 0.00 | 0.00 | 89 | 1008.5 |
| 20260506031008 | 25 | 198 | 6.4 | 19.3 | 0.00 | 0.00 | 0.00 | 89 | 1008.4 |
| 20260506030508 | 25 | 93 | 4.8 | 17.7 | 0.00 | 0.00 | 0.00 | 89 | 1008.5 |
| 20260506030021 | 25 | 178 | 6.4 | 17.7 | 0.00 | 0.00 | 0.00 | 88 | 1008.6 |
| 20260506025511 | 25 | 169 | 6.4 | 20.9 | 0.00 | 0.00 | 0.00 | 88 | 1008.6 |
| 20260506025010 | 25 | 163 | 9.7 | 22.5 | 0.00 | 0.00 | 0.00 | 88 | 1008.5 |
| 20260506024532 | 25 | 213 | 9.7 | 22.5 | 0.00 | 0.00 | 0.00 | 88 | 1008.4 |
| 20260506024006 | 25 | 189 | 9.7 | 22.5 | 0.00 | 0.00 | 0.00 | 88 | 1008.3 |
| 20260506023510 | 25 | 205 | 6.4 | 14.5 | 0.00 | 0.00 | 0.00 | 88 | 1008.2 |
| 20260506023014 | 25 | 187 | 6.4 | 17.7 | 0.00 | 0.00 | 0.00 | 88 | 1008.2 |
| 20260506022513 | 25 | 189 | 8.0 | 17.7 | 0.00 | 0.00 | 0.00 | 88 | 1008.1 |
| 20260506022011 | 25 | 150 | 4.8 | 14.5 | 0.00 | 0.00 | 0.00 | 88 | 1008.0 |
| 20260506021525 | 25 | 186 | 6.4 | 16.1 | 0.00 | 0.00 | 0.00 | 88 | 1008.0 |
| 20260506021016 | 25 | 173 | 6.4 | 17.7 | 0.00 | 0.00 | 0.00 | 88 | 1007.9 |
| 20260506020511 | 25 | 171 | 8.0 | 17.7 | 0.00 | 0.00 | 0.00 | 87 | 1007.9 |
| 20260506020014 | 25 | 178 | 3.2 | 11.3 | 0.00 | 0.00 | 0.00 | 87 | 1007.9 |
| 20260506015504 | 25 | 184 | 4.8 | 16.1 | 0.00 | 0.00 | 0.00 | 87 | 1007.8 |
| 20260506015006 | 25 | 309 | 6.4 | 16.1 | 0.00 | 0.00 | 0.00 | 87 | 1007.7 |
| 20260506014519 | 25 | 178 | 6.4 | 14.5 | 0.00 | 0.00 | 0.00 | 87 | 1007.6 |
| 20260506014007 | 26 | 202 | 6.4 | 17.7 | 0.00 | 0.00 | 0.00 | 87 | 1007.6 |
| 20260506013510 | 26 | 187 | 6.4 | 19.3 | 0.00 | 0.00 | 0.00 | 87 | 1007.6 |
| 20260506013026 | 26 | 171 | 11.3 | 19.3 | 0.00 | 0.00 | 0.00 | 86 | 1007.5 |
| 20260506012511 | 26 | 169 | 6.4 | 17.7 | 0.00 | 0.00 | 0.00 | 86 | 1007.3 |
| 20260506012008 | 26 | 175 | 6.4 | 17.7 | 0.00 | 0.00 | 0.00 | 86 | 1007.2 |
| 20260506011517 | 26 | 195 | 6.4 | 16.1 | 0.00 | 0.00 | 0.00 | 86 | 1007.1 |
| 20260506011009 | 26 | 163 | 6.4 | 16.1 | 0.00 | 0.00 | 0.00 | 86 | 1007.0 |
| 20260506010518 | 26 | 202 | 8.0 | 14.5 | 0.00 | 0.00 | 0.00 | 85 | 1007.0 |
| 20260506010045 | 26 | 67 | 6.4 | 16.1 | 0.00 | 0.00 | 0.00 | 85 | 1007.0 |
| 20260506005509 | 26 | 207 | 6.4 | 16.1 | 0.00 | 0.00 | 0.00 | 85 | 1007.0 |
| 20260506005010 | 26 | 178 | 4.8 | 17.7 | 0.00 | 0.00 | 0.00 | 85 | 1007.0 |
| 20260506004527 | 26 | 221 | 6.4 | 17.7 | 0.00 | 0.00 | 0.00 | 84 | 1007.0 |
| 20260506004006 | 26 | 190 | 6.4 | 25.7 | 0.00 | 0.00 | 0.00 | 84 | 1006.9 |
| 20260506003510 | 26 | 153 | 9.7 | 25.7 | 0.00 | 0.00 | 0.00 | 84 | 1006.9 |
| 20260506003017 | 26 | 207 | 8.0 | 24.1 | 0.00 | 0.00 | 0.00 | 84 | 1006.7 |
| 20260506002508 | 26 | 34 | 9.7 | 24.1 | 0.00 | 0.00 | 0.00 | 84 | 1006.7 |
| 20260506002010 | 26 | 175 | 12.9 | 22.5 | 0.00 | 0.00 | 0.00 | 84 | 1006.7 |
| 20260506001524 | 26 | 155 | 9.7 | 22.5 | 0.00 | 0.00 | 0.00 | 84 | 1006.7 |
| 20260506001009 | 26 | 175 | 8.0 | 22.5 | 0.00 | 0.00 | 0.00 | 83 | 1006.8 |
| 20260506000512 | 27 | 175 | 8.0 | 20.9 | 0.00 | 0.00 | 0.00 | 83 | 1006.8 |
| 20260506000014 | 27 | 188 | 9.7 | 20.9 | 0.00 | 0.00 | 0.00 | 84 | 1006.8 |
| 20260505235504 | 27 | 166 | 9.7 | 20.9 | 0.00 | 0.00 | 0.00 | 83 | 1006.8 |
| 20260505235011 | 27 | 185 | 9.7 | 20.9 | 0.00 | 0.00 | 0.00 | 83 | 1006.6 |
| 20260505234519 | 27 | 152 | 8.0 | 20.9 | 0.00 | 0.00 | 0.00 | 83 | 1006.6 |
| 20260505234009 | 27 | 315 | 9.7 | 27.4 | 0.00 | 0.00 | 0.00 | 83 | 1006.6 |
| 20260505233510 | 27 | 207 | 11.3 | 27.4 | 0.00 | 0.00 | 0.00 | 83 | 1006.5 |
| 20260505233028 | 27 | 175 | 6.4 | 20.9 | 0.00 | 0.00 | 0.00 | 83 | 1006.6 |
| 20260505232517 | 27 | 190 | 8.0 | 24.1 | 0.00 | 0.00 | 0.00 | 83 | 1006.7 |
| 20260505232009 | 27 | 178 | 11.3 | 27.4 | 0.00 | 0.00 | 0.00 | 82 | 1006.7 |
| 20260505231529 | 27 | 218 | 11.3 | 27.4 | 0.00 | 0.00 | 0.00 | 82 | 1006.6 |
| 20260505231007 | 27 | 196 | 11.3 | 25.7 | 0.00 | 0.00 | 0.00 | 82 | 1006.6 |
| 20260505230507 | 27 | 195 | 9.7 | 20.9 | 0.00 | 0.00 | 0.00 | 82 | 1006.7 |
| 20260505230038 | 28 | 9 | 4.8 | 24.1 | 0.00 | 0.00 | 0.00 | 83 | 1006.6 |
| 20260505225511 | 28 | 182 | 9.7 | 25.7 | 0.00 | 0.00 | 0.00 | 83 | 1006.6 |
| 20260505225010 | 27 | 194 | 11.3 | 25.7 | 0.00 | 0.00 | 0.00 | 82 | 1006.6 |
| 20260505224533 | 28 | 93 | 6.4 | 27.4 | 0.00 | 0.00 | 0.00 | 82 | 1006.6 |
| 20260505224005 | 28 | 200 | 9.7 | 27.4 | 0.00 | 0.00 | 0.00 | 82 | 1006.7 |
| 20260505223507 | 28 | 265 | 12.9 | 25.7 | 0.00 | 0.00 | 0.00 | 81 | 1006.7 |
| 20260505223017 | 28 | 178 | 6.4 | 24.1 | 0.00 | 0.00 | 0.00 | 81 | 1006.7 |
| 20260505222510 | 28 | 175 | 9.7 | 24.1 | 0.00 | 0.00 | 0.00 | 81 | 1006.8 |
| 20260505222008 | 28 | 170 | 8.0 | 22.5 | 0.00 | 0.00 | 0.00 | 81 | 1006.7 |
| 20260505221526 | 28 | 197 | 6.4 | 22.5 | 0.00 | 0.00 | 0.00 | 81 | 1006.8 |
| 20260505221010 | 28 | 175 | 9.7 | 17.7 | 0.00 | 0.00 | 0.00 | 80 | 1006.8 |
| 20260505220509 | 28 | 234 | 6.4 | 24.1 | 0.00 | 0.00 | 0.00 | 80 | 1006.8 |
| 20260505220013 | 28 | 183 | 11.3 | 24.1 | 0.00 | 0.00 | 0.00 | 79 | 1006.9 |
| 20260505215508 | 28 | 178 | 8.0 | 20.9 | 0.00 | 0.00 | 0.00 | 80 | 1007.0 |
| 20260505215007 | 28 | 194 | 9.7 | 24.1 | 0.00 | 0.00 | 0.00 | 80 | 1007.1 |
| 20260505214521 | 28 | 185 | 8.0 | 24.1 | 0.00 | 0.00 | 0.00 | 80 | 1007.0 |
| 20260505214008 | 28 | 167 | 9.7 | 24.1 | 0.00 | 0.00 | 0.00 | 79 | 1007.1 |
| 20260505213508 | 28 | 189 | 11.3 | 24.1 | 0.00 | 0.00 | 0.00 | 79 | 1007.2 |
| 20260505213029 | 28 | 178 | 9.7 | 27.4 | 0.00 | 0.00 | 0.00 | 80 | 1007.2 |
| 20260505212513 | 28 | 137 | 6.4 | 30.6 | 0.00 | 0.00 | 0.00 | 79 | 1007.3 |
| 20260505212006 | 29 | 196 | 9.7 | 30.6 | 0.00 | 0.00 | 0.00 | 79 | 1007.2 |
| 20260505211520 | 28 | 187 | 9.7 | 24.1 | 0.00 | 0.00 | 0.00 | 79 | 1007.3 |
| 20260505211007 | 28 | 227 | 11.3 | 24.1 | 0.00 | 0.00 | 0.00 | 79 | 1007.3 |
| 20260505210508 | 28 | 184 | 8.0 | 24.1 | 0.00 | 0.00 | 0.00 | 80 | 1007.5 |
| 20260505210026 | 28 | 194 | 6.4 | 24.1 | 0.00 | 0.00 | 0.00 | 80 | 1007.6 |
| 20260505205513 | 28 | 164 | 6.4 | 22.5 | 0.00 | 0.00 | 0.00 | 80 | 1007.7 |
| 20260505205011 | 28 | 146 | 9.7 | 20.9 | 0.00 | 0.00 | 0.00 | 80 | 1007.7 |
| 20260505204527 | 28 | 169 | 11.3 | 22.5 | 0.00 | 0.00 | 0.00 | 80 | 1007.9 |
| 20260505204012 | 28 | 183 | 8.0 | 29.0 | 0.00 | 0.00 | 0.00 | 80 | 1008.0 |
| 20260505203510 | 28 | 171 | 12.9 | 29.0 | 0.00 | 0.00 | 0.00 | 79 | 1008.0 |
| 20260505203028 | 29 | 159 | 9.7 | 17.7 | 0.00 | 0.00 | 0.00 | 80 | 1008.0 |
| 20260505202510 | 29 | 229 | 9.7 | 25.7 | 0.00 | 0.00 | 0.00 | 79 | 1008.0 |
| 20260505202010 | 29 | 157 | 9.7 | 25.7 | 0.00 | 0.00 | 0.00 | 79 | 1008.2 |
| 20260505201526 | 29 | 93 | 6.4 | 20.9 | 0.00 | 0.00 | 0.00 | 80 | 1008.2 |
| 20260505201011 | 29 | 186 | 6.4 | 20.9 | 0.00 | 0.00 | 0.00 | 81 | 1008.3 |
| 20260505200511 | 28 | 153 | 6.4 | 20.9 | 0.00 | 0.00 | 0.00 | 81 | 1008.4 |
| 20260505200012 | 28 | 169 | 9.7 | 24.1 | 0.00 | 0.00 | 0.00 | 80 | 1008.4 |
| 20260505195507 | 28 | 178 | 4.8 | 24.1 | 0.00 | 0.00 | 0.00 | 80 | 1008.4 |
| 20260505195009 | 28 | 197 | 9.7 | 22.5 | 0.00 | 0.00 | 0.00 | 81 | 1008.5 |
| 20260505194522 | 28 | 157 | 9.7 | 22.5 | 0.00 | 0.00 | 0.00 | 81 | 1008.6 |
| 20260505194012 | 28 | 171 | 4.8 | 19.3 | 0.00 | 0.00 | 0.00 | 81 | 1008.7 |
| 20260505193510 | 28 | 81 | 8.0 | 24.1 | 0.00 | 0.00 | 0.00 | 82 | 1008.7 |
| 20260505193028 | 28 | 197 | 9.7 | 24.1 | 0.00 | 0.00 | 0.00 | 82 | 1008.7 |
| 20260505192511 | 28 | 163 | 6.4 | 16.1 | 0.00 | 0.00 | 0.00 | 83 | 1008.7 |
| 20260505192009 | 28 | 178 | 6.4 | 19.3 | 0.00 | 0.00 | 0.00 | 83 | 1008.7 |
| 20260505191515 | 27 | 178 | 6.4 | 19.3 | 0.00 | 0.00 | 0.00 | 82 | 1008.8 |
| 20260505191009 | 28 | 190 | 6.4 | 19.3 | 0.00 | 0.00 | 0.00 | 82 | 1008.9 |
| 20260505190514 | 28 | 175 | 3.2 | 20.9 | 0.00 | 0.00 | 0.00 | 83 | 1008.9 |
| 20260505190033 | 27 | 9 | 9.7 | 24.1 | 0.00 | 0.00 | 0.00 | 82 | 1008.8 |
| 20260505185511 | 28 | 192 | 8.0 | 27.4 | 0.00 | 0.00 | 0.00 | 82 | 1008.9 |
| 20260505185011 | 28 | 187 | 8.0 | 27.4 | 0.00 | 0.00 | 0.00 | 82 | 1008.8 |
| 20260505184528 | 28 | 185 | 6.4 | 16.1 | 0.00 | 0.00 | 0.00 | 83 | 1008.9 |
| 20260505184007 | 27 | 265 | 6.4 | 24.1 | 0.00 | 0.00 | 0.00 | 82 | 1008.9 |
| 20260505183508 | 27 | 195 | 6.4 | 24.1 | 0.00 | 0.00 | 0.00 | 82 | 1008.9 |
| 20260505183019 | 27 | 238 | 6.4 | 19.3 | 0.00 | 0.00 | 0.00 | 83 | 1009.1 |
| 20260505182511 | 27 | 184 | 6.4 | 17.7 | 0.00 | 0.00 | 0.00 | 83 | 1009.1 |
| 20260505182016 | 27 | 192 | 6.4 | 16.1 | 0.00 | 0.00 | 0.00 | 84 | 1009.2 |
| 20260505181532 | 27 | 216 | 3.2 | 19.3 | 0.00 | 0.00 | 0.00 | 83 | 1009.3 |
| 20260505181009 | 27 | 199 | 6.4 | 19.3 | 0.00 | 0.00 | 0.00 | 84 | 1009.3 |
| 20260505180509 | 27 | 157 | 4.8 | 19.3 | 0.00 | 0.00 | 0.00 | 85 | 1009.3 |
| 20260505180016 | 27 | 209 | 4.8 | 16.1 | 0.00 | 0.00 | 0.00 | 84 | 1009.4 |
| 20260505175512 | 27 | 165 | 4.8 | 16.1 | 0.00 | 0.00 | 0.00 | 84 | 1009.4 |
| 20260505175016 | 27 | 216 | 6.4 | 17.7 | 0.00 | 0.00 | 0.00 | 84 | 1009.3 |
| 20260505174525 | 27 | 189 | 8.0 | 17.7 | 0.00 | 0.00 | 0.00 | 84 | 1009.4 |
| 20260505174012 | 27 | 243 | 6.4 | 14.5 | 0.00 | 0.00 | 0.00 | 85 | 1009.5 |
| 20260505173509 | 26 | 205 | 4.8 | 12.9 | 0.00 | 0.00 | 0.00 | 85 | 1009.5 |
| 20260505173011 | 26 | 169 | 6.4 | 17.7 | 0.00 | 0.00 | 0.00 | 84 | 1009.6 |
| 20260505172506 | 26 | 188 | 4.8 | 17.7 | 0.00 | 0.00 | 0.00 | 84 | 1009.5 |
| 20260505172007 | 26 | 227 | 6.4 | 19.3 | 0.00 | 0.00 | 0.00 | 84 | 1009.5 |
| 20260505171527 | 26 | 241 | 9.7 | 19.3 | 0.00 | 0.00 | 0.00 | 84 | 1009.5 |
| 20260505171009 | 26 | 173 | 6.4 | 19.3 | 0.00 | 0.00 | 0.00 | 85 | 1009.5 |
| 20260505170511 | 26 | 214 | 8.0 | 22.5 | 0.00 | 0.00 | 0.00 | 85 | 1009.5 |
| 20260505170026 | 26 | 161 | 8.0 | 22.5 | 0.00 | 0.00 | 0.00 | 85 | 1009.7 |
| 20260505165511 | 26 | 275 | 8.0 | 19.3 | 0.00 | 0.00 | 0.00 | 85 | 1009.6 |
| 20260505165004 | 26 | 178 | 6.4 | 19.3 | 0.00 | 0.00 | 0.00 | 85 | 1009.6 |
| 20260505164510 | 26 | 193 | 9.7 | 19.3 | 0.00 | 0.00 | 0.00 | 86 | 1009.5 |
| 20260505164008 | 26 | 225 | 6.4 | 17.7 | 0.00 | 0.00 | 0.00 | 86 | 1009.6 |
| 20260505163509 | 26 | 153 | 4.8 | 17.7 | 0.00 | 0.00 | 0.00 | 87 | 1009.5 |
| 20260505163020 | 26 | 207 | 4.8 | 14.5 | 0.00 | 0.00 | 0.00 | 88 | 1009.6 |
| 20260505162507 | 25 | 190 | 4.8 | 11.3 | 0.00 | 0.00 | 0.00 | 88 | 1009.5 |
| 20260505162011 | 25 | 146 | 6.4 | 16.1 | 0.00 | 0.00 | 0.00 | 88 | 1009.6 |
| 20260505161528 | 25 | 196 | 6.4 | 16.1 | 0.00 | 0.00 | 0.00 | 87 | 1009.7 |
| 20260505161003 | 25 | 189 | 4.8 | 19.3 | 0.00 | 0.00 | 0.00 | 86 | 1009.4 |
| 20260505160515 | 26 | 9 | 8.0 | 20.9 | 0.00 | 0.00 | 0.00 | 87 | 1009.5 |
| 20260505153008 | 25 | 202 | 6.4 | 16.1 | 0.00 | 0.00 | 0.00 | 88 | 1009.2 |
| 20260505152509 | 25 | 177 | 6.4 | 16.1 | 0.00 | 0.00 | 0.00 | 88 | 1009.3 |
| 20260505152013 | 25 | 209 | 6.4 | 17.7 | 0.00 | 0.00 | 0.00 | 89 | 1009.3 |
| 20260505151529 | 25 | 213 | 6.4 | 17.7 | 0.00 | 0.00 | 0.00 | 88 | 1009.3 |
| 20260505151011 | 25 | 271 | 3.2 | 17.7 | 0.00 | 0.00 | 0.00 | 89 | 1009.4 |
| 20260505150513 | 24 | 177 | 8.0 | 17.7 | 0.00 | 0.00 | 0.00 | 89 | 1009.4 |
| 20260505140506 | 23 | 164 | 9.7 | 20.9 | 0.00 | 0.00 | 0.00 | 91 | 1008.8 |
| 20260505125011 | 22 | 164 | 6.4 | 12.9 | 0.00 | 0.00 | 0.00 | 94 | 1009.1 |
| 20260505124520 | 21 | 183 | 4.8 | 9.7 | 0.00 | 0.00 | 0.00 | 94 | 1009.0 |
| 20260505124009 | 21 | 178 | 3.2 | 9.7 | 0.00 | 0.00 | 0.00 | 94 | 1009.0 |
| 20260505123506 | 21 | 334 | 1.6 | 9.7 | 0.00 | 0.00 | 0.00 | 94 | 1009.0 |
| 20260505123027 | 21 | 161 | 3.2 | 11.3 | 0.00 | 0.00 | 0.00 | 93 | 1009.0 |
| 20260505122510 | 21 | 178 | 3.2 | 11.3 | 0.00 | 0.00 | 0.00 | 93 | 1008.8 |
| 20260505122007 | 21 | 157 | 3.2 | 8.0 | 0.00 | 0.00 | 0.00 | 93 | 1008.8 |
| 20260505121533 | 21 | 224 | 3.2 | 11.3 | 0.00 | 0.00 | 0.00 | 93 | 1008.8 |
| 20260505121005 | 21 | 186 | 3.2 | 11.3 | 0.00 | 0.00 | 0.00 | 93 | 1008.7 |
| 20260505120511 | 21 | 196 | 1.6 | 11.3 | 0.00 | 0.00 | 0.00 | 93 | 1008.6 |
| 20260505120048 | 21 | 190 | 1.6 | 11.3 | 0.00 | 0.00 | 0.00 | 93 | 1008.6 |
| 20260505115511 | 21 | 169 | 3.2 | 12.9 | 0.00 | 0.00 | 0.00 | 93 | 1008.5 |
| 20260505115015 | 21 | 173 | 4.8 | 12.9 | 0.00 | 0.00 | 0.00 | 93 | 1008.2 |
| 20260505114526 | 21 | 190 | 4.8 | 12.9 | 0.00 | 0.00 | 0.00 | 93 | 1008.3 |
| 20260505114012 | 21 | 186 | 3.2 | 8.0 | 0.00 | 0.00 | 0.00 | 93 | 1008.6 |
| 20260505113510 | 21 | 188 | 1.6 | 9.7 | 0.00 | 0.00 | 0.00 | 93 | 1008.7 |
| 20260505113013 | 21 | 165 | 3.2 | 9.7 | 0.00 | 0.00 | 0.00 | 93 | 1008.7 |
| 20260505112508 | 21 | 190 | 1.6 | 9.7 | 0.00 | 0.00 | 0.00 | 93 | 1008.6 |
| 20260505112006 | 21 | 168 | 4.8 | 9.7 | 0.00 | 0.00 | 0.00 | 93 | 1008.6 |
| 20260505111526 | 21 | 178 | 4.8 | 12.9 | 0.00 | 0.00 | 0.00 | 93 | 1008.4 |
| 20260505111010 | 21 | 169 | 4.8 | 12.9 | 0.00 | 0.00 | 0.00 | 93 | 1008.4 |
| 20260505110509 | 21 | 192 | 4.8 | 12.9 | 0.00 | 0.00 | 0.00 | 92 | 1008.3 |
| 20260505102015 | 21 | 205 | 4.8 | 14.5 | 0.00 | 0.00 | 0.00 | 92 | 1008.6 |
| 20260505101529 | 21 | 143 | 4.8 | 14.5 | 0.00 | 0.00 | 0.00 | 92 | 1008.5 |
| 20260505101013 | 21 | 178 | 4.8 | 14.5 | 0.00 | 0.00 | 0.00 | 92 | 1008.5 |
| 20260505100508 | 21 | 193 | 6.4 | 14.5 | 0.00 | 0.00 | 0.00 | 92 | 1008.6 |
| 20260505100026 | 21 | 168 | 4.8 | 11.3 | 0.00 | 0.00 | 0.00 | 92 | 1008.7 |
| 20260505095509 | 21 | 200 | 4.8 | 11.3 | 0.00 | 0.00 | 0.00 | 92 | 1008.7 |
| 20260505095013 | 21 | 93 | 4.8 | 14.5 | 0.00 | 0.00 | 0.00 | 92 | 1008.7 |
| 20260505094528 | 21 | 161 | 3.2 | 14.5 | 0.00 | 0.00 | 0.00 | 92 | 1008.7 |
| 20260505094011 | 21 | 160 | 6.4 | 11.3 | 0.00 | 0.00 | 0.00 | 92 | 1008.5 |
| 20260505093511 | 21 | 200 | 3.2 | 11.3 | 0.00 | 0.00 | 0.00 | 92 | 1008.5 |
| 20260505093030 | 21 | 173 | 4.8 | 11.3 | 0.00 | 0.00 | 0.00 | 92 | 1008.6 |
| 20260505092507 | 21 | 168 | 4.8 | 11.3 | 0.00 | 0.00 | 0.00 | 91 | 1008.7 |
| 20260505092012 | 21 | 207 | 1.6 | 12.9 | 0.00 | 0.00 | 0.00 | 91 | 1008.7 |
| 20260505091527 | 21 | 178 | 1.6 | 12.9 | 0.00 | 0.00 | 0.00 | 91 | 1008.7 |
| 20260505091012 | 21 | 173 | 3.2 | 11.3 | 0.00 | 0.00 | 0.00 | 91 | 1008.9 |
| 20260505090508 | 21 | 178 | 3.2 | 11.3 | 0.00 | 0.00 | 0.00 | 91 | 1008.9 |
| 20260505090026 | 21 | 198 | 3.2 | 11.3 | 0.00 | 0.00 | 0.00 | 91 | 1008.9 |
| 20260505085510 | 21 | 178 | 3.2 | 12.9 | 0.00 | 0.00 | 0.00 | 91 | 1008.8 |
| 20260505085006 | 21 | 171 | 4.8 | 12.9 | 0.00 | 0.00 | 0.00 | 91 | 1008.8 |
| 20260505084524 | 21 | 211 | 4.8 | 11.3 | 0.00 | 0.00 | 0.00 | 91 | 1008.9 |
| 20260505084013 | 21 | 153 | 3.2 | 9.7 | 0.00 | 0.00 | 0.00 | 91 | 1008.9 |
| 20260505083514 | 21 | 178 | 4.8 | 9.7 | 0.00 | 0.00 | 0.00 | 91 | 1009.0 |
| 20260505083026 | 21 | 205 | 3.2 | 9.7 | 0.00 | 0.00 | 0.00 | 91 | 1009.1 |
| 20260505082509 | 21 | 171 | 3.2 | 9.7 | 0.00 | 0.00 | 0.00 | 91 | 1009.2 |
| 20260505082004 | 21 | 221 | 3.2 | 8.0 | 0.00 | 0.00 | 0.00 | 91 | 1009.1 |
| 20260505081514 | 21 | 190 | 1.6 | 9.7 | 0.00 | 0.00 | 0.00 | 91 | 1009.1 |
| 20260505081006 | 21 | 205 | 3.2 | 16.1 | 0.00 | 0.00 | 0.00 | 91 | 1009.2 |
| 20260505080508 | 21 | 193 | 6.4 | 16.1 | 0.00 | 0.00 | 0.00 | 90 | 1009.3 |
| 20260505080024 | 21 | 165 | 4.8 | 14.5 | 0.00 | 0.00 | 0.00 | 90 | 1009.3 |
| 20260505075509 | 21 | 178 | 1.6 | 9.7 | 0.00 | 0.00 | 0.00 | 90 | 1009.4 |
| 20260505075008 | 21 | 157 | 3.2 | 9.7 | 0.00 | 0.00 | 0.00 | 90 | 1009.4 |
| 20260505074527 | 21 | 163 | 3.2 | 12.9 | 0.00 | 0.00 | 0.00 | 90 | 1009.4 |
| 20260505074006 | 21 | 221 | 3.2 | 14.5 | 0.00 | 0.00 | 0.00 | 90 | 1009.3 |
| 20260505073507 | 21 | 188 | 4.8 | 14.5 | 0.00 | 0.00 | 0.00 | 90 | 1009.4 |
| 20260505073028 | 21 | 178 | 4.8 | 14.5 | 0.00 | 0.00 | 0.00 | 90 | 1009.4 |
| 20260505072511 | 21 | 211 | 4.8 | 16.1 | 0.00 | 0.00 | 0.00 | 90 | 1009.4 |
| 20260505072007 | 21 | 163 | 4.8 | 16.1 | 0.00 | 0.00 | 0.00 | 90 | 1009.4 |
| 20260505071526 | 21 | 178 | 4.8 | 16.1 | 0.00 | 0.00 | 0.00 | 90 | 1009.4 |
| 20260505071010 | 21 | 188 | 4.8 | 17.7 | 0.00 | 0.00 | 0.00 | 90 | 1009.6 |
| 20260505070513 | 21 | 155 | 4.8 | 17.7 | 0.00 | 0.00 | 0.00 | 90 | 1009.7 |
| 20260505070013 | 21 | 178 | 4.8 | 12.9 | 0.00 | 0.00 | 0.00 | 89 | 1009.6 |
| 20260505065508 | 21 | 168 | 4.8 | 12.9 | 0.00 | 0.00 | 0.00 | 89 | 1009.7 |
| 20260505065008 | 21 | 175 | 4.8 | 11.3 | 0.00 | 0.00 | 0.00 | 89 | 1009.8 |
| 20260505064536 | 21 | 171 | 4.8 | 12.9 | 0.00 | 0.00 | 0.00 | 89 | 1009.9 |
| 20260505064007 | 21 | 199 | 4.8 | 14.5 | 0.00 | 0.00 | 0.00 | 89 | 1009.9 |
| 20260505063508 | 21 | 159 | 4.8 | 16.1 | 0.00 | 0.00 | 0.00 | 89 | 1010.0 |
| 20260505063025 | 21 | 175 | 4.8 | 16.1 | 0.00 | 0.00 | 0.00 | 89 | 1010.2 |
| 20260505062511 | 21 | 184 | 6.4 | 20.9 | 0.00 | 0.00 | 0.00 | 89 | 1010.3 |
| 20260505062004 | 21 | 199 | 4.8 | 20.9 | 0.00 | 0.00 | 0.00 | 89 | 1010.2 |
| 20260505061528 | 21 | 169 | 4.8 | 16.1 | 0.00 | 0.00 | 0.00 | 89 | 1010.2 |
| 20260505061006 | 21 | 173 | 4.8 | 16.1 | 0.00 | 0.00 | 0.00 | 89 | 1010.3 |
| 20260505060510 | 21 | 185 | 4.8 | 12.9 | 0.00 | 0.00 | 0.00 | 89 | 1010.5 |